Weather Roundup
Issued by NWS Chicago, IL

Home | Current Version | Previous Version | Graphics & Text | Print | Product List | Glossary On
Versions: 1 2 3 4 5 6 7 8 9 10 11 12 13 14 15 16 17 18 19 20 21 22 23 24 25 26 27 28 29 30 31 32 33 34 35 36 37 38 39 40 41 42 43 44 45 46 47 48 49 50
000
NZUS59 KLOT 011208
HRRLOT

CHICAGO AREA WEATHER ROUNDUP
NATIONAL WEATHER SERVICE CHICAGO/ROMEOVILLE IL
700 AM CDT TUE SEP 01 2015

NOTE: "FAIR" INDICATES FEW OR NO CLOUDS BELOW 12,000 FEET WITH NO
SIGNIFICANT WEATHER AND/OR OBSTRUCTIONS TO VISIBILITY.

* THESE STATIONS ARE NOT UNDER NWS QUALITY CONTROL. THEY ALSO MAY NOT
  REPORT WEATHER SUCH AS PRECIPITATION OR FOG.

ILZ005-006-012>014-019>023-011300-
NORTHEAST ILLINOIS

CITY           SKY/WX    TMP DP  RH WIND       PRES   REMARKS
OHARE          PTCLDY    72  70  93 S5        30.05R FOG
6HR MIN TEMP:  68; 6HR MAX TEMP:  72;

MIDWAY         PTCLDY    74  69  85 S7        30.05R
6HR MIN TEMP:  74; 6HR MAX TEMP:  77;

AURORA         FOG       69  68  96 SE3       30.06R VSB 1
6HR MIN TEMP:  68; 6HR MAX TEMP:  72;

LANSING*       CLEAR     68  67  97 CALM      30.08R FOG
JOLIET*        PTCLDY    71  70  99 CALM      30.06S FOG
WAUKEGAN       CLEAR     69  68  96 SW6       30.04R FOG
6HR MIN TEMP:  64; 6HR MAX TEMP:  70;

DUPAGE AIRPORT PTCLDY    70  68  93 S3        30.05R FOG
6HR MIN TEMP:  68; 6HR MAX TEMP:  71;

WHEELING       PTCLDY    69  67  93 S3        30.06R FOG
6HR MIN TEMP:  67; 6HR MAX TEMP:  70;

KANKAKEE*      PTCLDY    70  69  95 S6        30.08R
MORRIS*          N/A     69  68  97 SE3       30.05R FOG
LEWIS AIRPORT* CLEAR     69  69  99 S6        30.06R FOG
NORTHERLY IS     N/A     73  68  84 S5          N/A
$$

WIZ051-052-058>065-066-070>072-011300-
SOUTHEAST WISCONSIN

CITY           SKY/WX    TMP DP  RH WIND       PRES   REMARKS
MILWAUKEE      PTCLDY    70  67  90 CALM      30.03R FOG
6HR MIN TEMP:  66; 6HR MAX TEMP:  70;

KENOSHA*       CLEAR     70  68  93 SW5       30.04S FOG
RACINE*        CLEAR     70  67  90 S3        30.05R FOG
BURLINGTON       N/A     60  60 100 CALM      30.04R FOG
WAUKESHA       PTCLDY    66  64  94 CALM      30.05R FOG
WEST BEND      PTCLDY    63  61  94 CALM      30.03S FOG
$$

INZ001>003-010>013-019-020-011300-
NORTHWEST INDIANA

CITY           SKY/WX    TMP DP  RH WIND       PRES   REMARKS
GARY*          PTCLDY    72  68  88 VRB5      30.07R FOG
MICHIGAN CITY* NOT AVBL
RENSSELAER*    NOT AVBL
VALPARAISO     CLEAR     69  67  93 CALM      30.09S FOG
$$

LMZ740>746-011300-
SOUTHERN LAKE MICHIGAN

STATION/POSITION TIME  SKY/WX   TEMP WIND        PRES    VSBY
                                AIR  DIR/SP/G
                 (UTC)          (F)  (DEG/KT/KT) (MB)    (MI)
HARRISON CRIB    1100            72  170/  9/ 11   N/A
BURNHAM HARBOR   1200            73  230/  2/  6   N/A
CALUMET HARBOR   1100            71  190/  4/  5   N/A
BURNS HARBOR     1100            72  180/  8/ 11 1018.3S
MICHIGAN CITY    1100            73  150/  9/ 12   N/A
$$

ABBREVIATIONS USED IN REMARKS
   TC - TEMPERATURE IN CELSIUS
  WCI - WIND CHILL INDEX
   HX - HEAT INDEX
  VSB - VISIBILITY
$$



USA.gov is the U.S. government's official web portal to all federal, state and local government web resources and services.